History for DABS

Tebessa, Algeria

Daily Weekly Monthly
Daily Summary for Thursday, April 24, 2014
  Actual: Average: Record:
Temperature
Mean Temperature: 58 °F / 14 °C - :  
Max Temperature: 78 °F / 25 °C 74 °F / 24 °C - ()
Min Temperature: 39 °F / 4 °C 49 °F / 9 °C - ()
Degree Days
Heating Degree Days: 6    
Growing Degree Days 8 (Base 50)    
Moisture
Dew Point 31 °F / -1 °C    
Average Humidity 28    
Maximum Humidity 93    
Minimum Humidity 8    
Precipitation
Precipitation 0.00 in / 0.0 cm 0.05 in / 1.2 cm - ()
Sea Level Pressure
Sea Level Pressure 30.11 in / 1019.71 hPa   
Wind
Wind Speed 5 mph / 8 km/h ()  
Max Wind Speed 16 mph / 26 km/h   
Max Gust Speed -   
Visibility 13.0 miles / 20.8 kilometers   
Events     

Key: T is trace of precipitation, MM is missing value
Source: Averaged Metar Reports

Graphs

Observations

History Graphs Observations

Obs Go Here...

Features

Weather Apps

WunderRadio

Weather Underground Apps
Check out our wide variety of mobile and setup applications.

Weather Underground Applications

Top of Page

Copyright© 2014
Weather Underground, Inc.
Time(CET)TemperatureDew PointHumidity Sea Level Pressure Visibility Wind DirectionWind SpeedGust SpeedPrecipitationEvents Conditions
7:00 AM 42 °F / 5 °C 39 °F / 4 °C 84%  in /  hPa 9 miles / 15 kilometers Calm Calm - -  
7:00 AM 41.0 °F / 5.0 °C 39.2 °F / 4.0 °C 93% 30.18 in / 1022 hPa - Calm Calm - N/A   Clear
8:00 AM 51.8 °F / 11.0 °C 42.8 °F / 6.0 °C 71% 30.18 in / 1022 hPa - Calm Calm - N/A   Clear
9:00 AM 53.6 °F / 12.0 °C 37.4 °F / 3.0 °C 54% 30.18 in / 1022 hPa - Calm Calm - N/A   Clear
10:00 AM 64 °F / 18 °C 37 °F / 3 °C 25%  in /  hPa 16 miles / 25 kilometers West 6.9 mph / 11.1 km/h - -  
10:00 AM 64.4 °F / 18.0 °C 37.4 °F / 3.0 °C 37% 30.18 in / 1022 hPa - Calm Calm - N/A   Clear
10:30 AM 66.2 °F / 19.0 °C 37.4 °F / 3.0 °C 35% 30.18 in / 1022 hPa - NNW 6.9 mph / 11.1 km/h - N/A   Clear
11:00 AM 68.0 °F / 20.0 °C 37.4 °F / 3.0 °C 33% 30.18 in / 1022 hPa - NW 9.2 mph / 14.8 km/h - N/A   Clear
11:30 AM 69.8 °F / 21.0 °C 37.4 °F / 3.0 °C 31% 30.18 in / 1022 hPa - NW 13.8 mph / 22.2 km/h - N/A   Clear
12:00 PM 73.4 °F / 23.0 °C 30.2 °F / -1.0 °C 20% 30.15 in / 1021 hPa - NW 16.1 mph / 25.9 km/h - N/A   Clear
12:30 PM 73.4 °F / 23.0 °C 30.2 °F / -1.0 °C 20% 30.15 in / 1021 hPa - NNW 11.5 mph / 18.5 km/h - N/A   Clear
1:00 PM 73 °F / 23 °C 29 °F / -2 °C 10%  in /  hPa 16 miles / 25 kilometers NNW 13.8 mph / 22.2 km/h - -   Clear
1:00 PM 73.4 °F / 23.0 °C 28.4 °F / -2.0 °C 19% 30.15 in / 1021 hPa - NNW 13.8 mph / 22.2 km/h - N/A   Clear
1:30 PM 73.4 °F / 23.0 °C 28.4 °F / -2.0 °C 19% 30.15 in / 1021 hPa - NNW 16.1 mph / 25.9 km/h - N/A   Clear
2:00 PM 75.2 °F / 24.0 °C 28.4 °F / -2.0 °C 18% 30.12 in / 1020 hPa - North 11.5 mph / 18.5 km/h - N/A   Clear
2:30 PM 75.2 °F / 24.0 °C 28.4 °F / -2.0 °C 18% 30.12 in / 1020 hPa - NW 13.8 mph / 22.2 km/h - N/A   Clear
3:00 PM 75.2 °F / 24.0 °C 28.4 °F / -2.0 °C 18% 30.09 in / 1019 hPa - West 9.2 mph / 14.8 km/h - N/A   Clear
3:30 PM 75.2 °F / 24.0 °C 28.4 °F / -2.0 °C 18% 30.09 in / 1019 hPa - NW 16.1 mph / 25.9 km/h - N/A   Clear
4:00 PM 77 °F / 25 °C 26 °F / -3 °C 8%  in /  hPa 16 miles / 25 kilometers NNW 6.9 mph / 11.1 km/h - -   Clear
4:00 PM 77.0 °F / 25.0 °C 26.6 °F / -3.0 °C 16% 30.09 in / 1019 hPa - NNW 6.9 mph / 11.1 km/h - N/A   Clear
4:30 PM 77.0 °F / 25.0 °C 26.6 °F / -3.0 °C 16% 30.06 in / 1018 hPa - North 11.5 mph / 18.5 km/h - N/A   Clear
5:00 PM 77.0 °F / 25.0 °C 26.6 °F / -3.0 °C 16% 30.06 in / 1018 hPa - WNW 4.6 mph / 7.4 km/h - N/A   Clear
5:30 PM 77.0 °F / 25.0 °C 26.6 °F / -3.0 °C 16% 30.06 in / 1018 hPa - WNW 9.2 mph / 14.8 km/h - N/A   Clear
6:00 PM 75.2 °F / 24.0 °C 24.8 °F / -4.0 °C 15% 30.06 in / 1018 hPa - WNW 6.9 mph / 11.1 km/h - N/A   Clear
6:30 PM 73.4 °F / 23.0 °C 24.8 °F / -4.0 °C 16% 30.06 in / 1018 hPa - Calm Calm - N/A   Clear
7:00 PM 73 °F / 23 °C 24 °F / -4 °C 8%  in /  hPa 12 miles / 20 kilometers Calm Calm - -   Clear
7:00 PM 73.4 °F / 23.0 °C 24.8 °F / -4.0 °C 16% 30.06 in / 1018 hPa - Calm Calm - N/A   Clear
7:30 PM 71.6 °F / 22.0 °C 24.8 °F / -4.0 °C 17% 30.06 in / 1018 hPa - Calm Calm - N/A   Clear
8:00 PM 69.8 °F / 21.0 °C 26.6 °F / -3.0 °C 20% 30.06 in / 1018 hPa - SSE 4.6 mph / 7.4 km/h - N/A   Clear
8:30 PM 68.0 °F / 20.0 °C 26.6 °F / -3.0 °C 21% 30.06 in / 1018 hPa - SE 4.6 mph / 7.4 km/h - N/A   Clear
9:00 PM 66.2 °F / 19.0 °C 26.6 °F / -3.0 °C 23% 30.09 in / 1019 hPa - East 4.6 mph / 7.4 km/h - N/A   Clear
9:30 PM 62.6 °F / 17.0 °C 26.6 °F / -3.0 °C 26% 30.09 in / 1019 hPa - Calm Calm - N/A   Clear
10:00 PM 61 °F / 16 °C 35 °F / 2 °C 27%  in /  hPa 9 miles / 15 kilometers Calm Calm - -   Clear
10:00 PM 60.8 °F / 16.0 °C 35.6 °F / 2.0 °C 39% 30.09 in / 1019 hPa - Calm Calm - N/A   Clear
10:30 PM 60.8 °F / 16.0 °C 35.6 °F / 2.0 °C 39% 30.09 in / 1019 hPa - Calm Calm - N/A   Clear
11:00 PM 59.0 °F / 15.0 °C 35.6 °F / 2.0 °C 42% 30.09 in / 1019 hPa - Calm Calm - N/A   Clear
11:30 PM 57.2 °F / 14.0 °C 35.6 °F / 2.0 °C 44% 30.09 in / 1019 hPa - SE 4.6 mph / 7.4 km/h - N/A   Clear